www.pogodaiklimat.ru

Погода и климат >> Архив погоды >> Мали >> Kayes


ПОГОДА в Kayes

  • Прогноз погоды в Kayes
  • Монитор погоды в Kayes
  • Климат города

АРХИВ ПОГОДЫ в Kayes

Время (UTC), дата Ветер
(напр.,м/с)
 
Видим.   Явления Облачность Т
(С)
Тd
(С)
f
(%)
Тe
(С)
Тes
(С)
Комфортность P
(гПа)
Po
(гПа)
Тmin
(С)
Tmax
(С)
R
(мм)
R24
(мм)
S
(см)
09 8.11 С 1 6000 м пыль 9/0
[Ac lent Ci sp]
+27.4 +21.3 69 +35 +37 очень
душно
1013.8 1007.5
12 8.11 ЮЗ 1 8000 м пыль 9/0
[Ac As Ci sp]
+33.1 +17.7 40 +37 +47 очень
душно
1013.0 1006.7
15 8.11 С 2 8000 м пыль 9/0
[Ac lent Ci sp]
+37.5 +15.9 28 +39 +45 очень
душно
1010.7 1004.5
18 8.11 З 1 8000 м пыль 9/0
[Ac lent Ci sp]
+33.0 +19.6 45 +39 +39 очень
душно
1011.1 1004.8 +38.5
21 8.11 СЗ 2 8000 м пыль 9/0
[Ac lent Ci sp]
+27.0 +16.7 53 +31 +31 душно 1011.9 1005.6
00 9.11 В 1 8000 м пыль 8/0
[Ac lent Ci sp]
+24.8 +13.4 49 +27 +27 жарко 1012.4 1006.1
03 9.11 В 2 8000 м пыль 8/0
[Ac lent Ci sp]
+23.1 +12.6 52 +26 +26 жарко 1011.7 1005.5
06 9.11 ЮВ 2 8000 м пыль 8/0 900 м
[Ac lent Ci sp]
+20.4 +12.8 62 +23 +23 комфорт 1011.9 1005.6 +20.2
09 9.11 ЮВ 2 8000 м пыль 6/0
[Ci sp]
+28.0 +11.9 37 +29 +33 жарко 1014.5 1008.2
12 9.11 В 7 8000 м пыль 6/0
[Ci sp]
+37.6 +6.5 15 +35 +39 очень
жарко
1013.1 1006.9
15 9.11 В 6 6000 м пыль 6/0
[Ci sp]
+39.5 +12.8 21 +39 +43 очень
жарко
1009.2 1003.0
18 9.11 СВ 2 6000 м пыль 9/0
[Ci sp]
+35.5 +14.9 29 +37 +37 душно 1009.0 1002.7 +40.0
21 9.11 СВ 2 6000 м пыль 8/0
[Ci sp]
+27.4 +15.5 48 +30 +30 жарко 1011.5 1005.2
00 10.11 В 3 6000 м пыль 8/0
[Ci sp]
+26.5 +15.1 50 +29 +29 жарко 1012.2 1006.0
03 10.11 В 2 6000 м пыль 8/0
[Ci sp]
+23.0 +13.7 56 +26 +26 жарко 1011.2 1005.0
06 10.11 ЮВ 2 6000 м пыль 8/0
[Ci sp]
+21.0 +12.3 58 +24 +24 комфорт 1011.8 1005.5 +21.0
09 10.11 В 4 10 км 5/0
[Ci sp]
+29.0 +12.6 36 +30 +33 жарко 1012.4 1006.1
12 10.11 В 5 10 км 3/0
[Ci sp]
+37.0 +15.1 27 +38 +45 душно 1011.5 1005.3
15 10.11 В 3 10 км 3/0
[Ci sp]
+40.4 +13.6 21 +41 +49 опасность
перегрева
1008.8 1002.6
18 10.11 С 3 10 км 6/0
[Ci sp]
+35.6 +14.8 29 +37 +37 душно 1009.0 1002.3 +40.0
21 10.11 С 4 10 км 5/0
[Ac lent Ci sp]
+28.5 +13.7 40 +30 +30 жарко 1010.3 1004.0
00 11.11 ЮВ 2 10 км 3/0
[Ci sp]
+24.8 +13.8 50 +27 +27 жарко 1010.6 1004.4
03 11.11 ЮВ 2 10 км 3/0
[Ci sp]
+23.2 +13.4 54 +26 +26 жарко 1009.7 1003.5
06 11.11 ЮВ 3 10 км 3/0
[Ci sp]
+20.2 +11.7 58 +22 +22 комфорт 1009.8 1003.5 +20.2
09 11.11 В 3 10 км 4/0
[Ci sp]
+29.8 +14.2 39 +32 +35 душно 1011.7 1005.4
12 11.11 В 5 10 км 4/0
[Ac lent Ci sp]
+35.5 +12.5 25 +35 +42 очень
жарко
1010.9 1004.7
15 11.11 В 5 10 км 8/0
[Ac lent Ci sp]
+39.4 +4.7 12 +36 +41 очень
жарко
1007.5 1001.3
18 11.11 С 2 10 км 8/0
[Ac lent Ci sp]
+35.0 +8.7 20 +33 +34 жарко 1007.7 1001.4 +39.6
21 11.11 С 3 10 км 6/0
[Ci sp]
+28.7 +12.9 38 +30 +30 жарко 1009.0 1002.8
00 12.11 СВ 2 10 км 8/0
[Ci sp]
+25.2 +11.5 42 +27 +27 жарко 1009.9 1003.7
03 12.11 Ю 2 10 км 6/0
[Ci sp]
+21.4 +13.6 61 +24 +24 комфорт 1009.0 1002.8
06 12.11 штиль 0 10 км 5/0
[Ci sp]
+18.8 +14.0 74 +20 +20 1009.7 1003.4 +18.5
09 12.11 В 2 10 км 6/0
[Ac lent Ci sp]
+28.7 +8.8 29 +28 +31 жарко 1011.2 1004.9
12 12.11 В 6 10 км 8/0
[Ac lent Ci sp]
+36.4 +6.0 15 +34 +37 очень
жарко
1010.2 1004.0
15 12.11 СВ 2 10 км 9/0
[Ac lent Ci sp]
+39.0 +7.6 15 +37 +43 очень
жарко
1008.6 1002.4
18 12.11 С 3 10 км 9/0
[Ac lent Ci sp]
+35.2 +11.8 24 +35 +35 очень
жарко
1008.8 1002.5 +39.2
21 12.11 С 2 10 км 8/0
[Ac lent Ci sp]
+28.4 +10.8 33 +29 +29 жарко 1009.2 1008.9
00 13.11 Ю 3 10 км 8/0
[Ac lent Ci sp]
+26.7 +12.7 42 +28 +28 жарко 1009.4 1003.2
03 13.11 ЮЗ 1 10 км 8/0
[Ac lent Ci sp]
+25.4 +14.0 49 +28 +28 жарко 1008.3 1002.1
06 13.11 СВ 1 10 км 8/0
[Ac lent Ci sp]
+22.2 +15.3 65 +26 +26 душно 1008.6 1002.3 +22.0
09 13.11 В 2 10 км 9/0
[Ac lent Ci sp]
+25.0 +15.2 55 +28 +29 жарко 1011.2 1004.9
12 13.11 В 4 10 км 8/0
[Ac lent Ci sp]
+35.0 +11.5 24 +35 +39 очень
жарко
1010.9 1004.7
15 13.11 ЮВ 2 10 км 6/0
[Ac lent Ci sp]
+38.0 +9.2 18 +36 +43 очень
жарко
1007.3 1001.2
18 13.11 ЮЗ 1 10 км 9/0
[Ac lent Ci sp]
+35.0 +16.9 34 +38 +38 очень
душно
1007.9 1001.7 +38.5
21 13.11 В 1 10 км 8/0
[Ac lent Ci sp]
+27.5 +15.4 48 +30 +30 жарко 1010.5 1004.2
00 14.11 ЮЗ 2 10 км 8/0
[Ac lent Ci sp]
+25.5 +15.3 53 +28 +28 жарко 1010.4 1004.2
03 14.11 З 3 10 км 8/0
[Ac lent Ci sp]
+23.5 +14.3 56 +26 +26 жарко 1008.9 1002.7
06 14.11 З 2 10 км 9/0
[Ac lent Ci sp]
+21.4 +14.9 66 +24 +24 комфорт 1010.1 1003.7 +21.4
09 14.11 Ю 2 8000 м пыль 9/0
[Ac lent Ci sp]
+25.4 +19.3 69 +31 +32 очень
душно
1011.4 1005.1
12 14.11 З 2 6000 м пыль 8/0
[Ac lent Ci sp]
+32.4 +16.1 38 +35 +43 душно 1010.1 1003.8
15 14.11 З 2 6000 м пыль 9/0
[Ac lent Ci sp]
+35.2 +17.2 34 +38 +43 очень
душно
1008.3 1002.1
18 14.11 СЗ 2 6000 м пыль 9/0
[Ac lent Ci sp]
+32.4 +17.5 41 +36 +36 очень
душно
1008.3 1002.0 +38.5
21 14.11 СЗ 3 6000 м пыль 8/0
[Ac lent Ci sp]
+27.5 +19.1 60 +33 +33 очень
душно
1010.5 1004.2
00 15.11 СЗ 1 6000 м пыль 9/0
[Ac lent Ci sp]
+26.5 +17.8 59 +31 +31 душно 1011.5 1005.2
03 15.11 Ю 2 6000 м пыль 9/0
[Ac lent Ci sp]
+25.0 +17.8 64 +29 +29 душно 1010.7 1004.5

 

Местоположение метеостанции Kayes (Мали): широта 14.43 долгота -11.43 высота над уровнем моря 47 м.

В архиве по умолчанию представлена погода в Kayes за последнюю неделю. Архивные данные за месяц целиком и за предыдущие месяцы, начиная с января 2011 года, Вы можете получить, выбрав интересующий диапазон дат из раскрывающегося списка и нажав кнопку "Ввод!".


*Определитесь, кто Вы:
робот инопланетянин человек

Внимание! Время в таблицах - всемирное. Для получения местного времени необходимо прибавить поправку, которая в Kayes равна 0 ч.

Смотрите также архив погоды в соседних городах и на ближайших метеорологических станциях:

Погода в Yelimane (Мали) (121 км)
Погода в Kenieba (Мали) (177 км)
Погода в Fatoto (Гамбия) (221 км)
Погода в Kedougou (Сенегал) (223 км)
Погода в Matam (Сенегал) (238 км)
Погода в Nioro Du Sahel (Мали) (241 км)
Погода в Kiffa (Мавритания) (245 км)
Погода в Tambacounda (Сенегал) (254 км)
Погода в Kita (Мали) (260 км)
Погода в Kaedi (Мавритания) (294 км)

Пояснения к столбцам:

Ветер - указаны скорость ветра в м/с - средняя за 10 мин, порывы в срок и между сроками (в фигурных скобках) и направление, откуда дует ветер: С - северный, СВ - северо-восточный, В - восточный, ЮВ - юго-восточный, Ю - южный, ЮЗ - юго-западный, З - западный, СЗ - северо-западный.
Видимость - горизонтальная дальность видимости в метрах или километрах. При видимости от 1 до 10 км при отсутствии осадков обычно наблюдается дымка, при ухудшении видимости до 1 км и менее - туман. В сухую погоду видимость может ухудшаться дымом, пылью или мглою.
Явления - указаны атмосферные явления, наблюдавшиеся в срок или в последний час перед сроком; фигурными скобками обозначены явления, наблюдавшиеся между сроками (за 1-3 часа до срока); квадратными скобками обозначены град или гололедные отложения с указанием их диаметра в мм.
Облачность - указаны через наклонную черту общая и нижняя облачность в баллах и высота нижней границы облаков в метрах; квадратными скобками обозначены формы облаков: Ci - перистые, Cs - перисто-слоистые, Cc - перисто-кучевые, Ac - высококучевые, As - высокослоистые, Sc - слоисто-кучевые, Ns - слоисто-дождевые, Cu - кучевые, Cb - кучево-дождевые. Подробнее классификацию облаков см. в Атласе облаков (PDF).
T - Температура воздуха - температура, измеренная на высоте 2 м над землей.
Td - Температура точки росы - температура, при понижении до которой содержащийся в воздухе водяной пар достигнет насыщения.
f - Относительная влажность воздуха - влажноcть воздуха, измеренная на высоте 2 м над землей.
Te - Эффективная температура - температура, которую ощущает одетый по сезону человек в тени. Характеристика душности погоды. При расчете учитывается влияние влажности воздуха и скорости ветра на теплоощущения человека.
Tes - Эффективная температура на солнце - температура, которую ощущает человек, с поправкой на солнечный нагрев. Характеристика знойности погоды. Зависит от высоты солнца над горизонтом, облачности и скорости ветра. Ночью, в пасмурную погоду, а также при ветре 12 м/с и более поправка равна нулю.
P - Атмосферное давление - приведенное к уровню моря атмосферное давление.
Po - Атмосферное давление - измеренное на уровне метеостанции атмосферное давление.
Tmin - Минимальная температура - минимум температуры воздуха на высоте 2 м над землей.
Tmax - Максимальная температура - максимум температуры воздуха на высоте 2 м над землей.
R - Количество осадков - Количество выпавших осадков за период времени, мм. При наведении курсора мыши на число - период времени, за который выпало указанное количество осадков.
R24 - Количество осадков - Количество выпавших осадков за 24 часа, мм.
S - Снежный покров - Высота снежного покрова, см. При наведении курсора мыши на число - состояние снежного покрова и степень покрытия местности в баллах.